FENGYUN 1C DEB

Satellite information

Favourite Embed

Satellite Type and Status

DEBRISIN ORBIT

Key statistics

Satellite FENGYUN 1C DEB at a glance.

Uptime

9617

Days in orbit

Revolutions

≈ 14.1

Per day

Orbit

SSO

Sun Synchronous Orbit

Inclination

98.8

Latest

Satellite identification and parameters

Extended collection of information and parameters for FENGYUN 1C DEB.

Object identification

Identified? True

Debris? True

Object name: FENGYUN 1C DEB

International designator: 1999-025BJK

Object number (NORAD): 31181

Object ID (CCSDS): 31181

Country: PEOPLES REPUBLIC OF CHINA (PRC)

Current information (Y/N): Y

RCS size: SMALL

Orbital parameters

Period: 102.025 minutes

Inclination: 98.7868 deg

SMA: 7232.635 km

Apoapsis: 889.259 km

Periapsis: 819.742 km

RAAN: 271.9365 deg

Eccentricy: 0.00480577

Argument of periapsis: 25.7896 deg

Mean anomaly: 3.159 deg

Mean motion: 14.11425347 rev/day

Mean motion (dot): 0.00001172 rev/day2

B* drag term: 0.00066363751 1/REarth

Two-line elements (TLE)

Creation date: Aug. 25, 2025, 9:12 p.m.

Reference frame: TEME

Reference center: EARTH

Epoch: Aug. 25, 2025, 1:16 a.m. UTC

TLE line 0: 0 FENGYUN 1C DEB

TLE line 1: 1 31181U 99025BJK 25237.05330050 .00001172 00000-0 66364-3 0 9993

TLE line 2: 2 31181 98.7868 271.9365 0048058 25.7896 3.1590 14.11425347942204

Live tracking on map

Real-time ground track for satellite FENGYUN 1C DEB.

In-orbit conjunctions

A list of the most updated potential collisions computed for object FENGYUN 1C DEB.

Target Orbit TCA Probability of collision Miss distance Type
CZ-4B R/B SSO 2025-05-22 17:27:02 0.000128514 266.0 (m) ROCKET BODY

Associated space launch

Chinese polar orbiting meteorological satellite

FENGYUN 1C DEB was lifted into orbit during the mission ‘Long March 4B | Feng Yun 1C’, on board a Long March 4B space rocket.

The launch took place on May 10, 1999, 1:33 a.m. from Launch Complex 7.

For more information about the launch, click the button.

Launch to space Long March 4B | Feng Yun 1C
Long March 4B | Feng Yun 1C

Agency: N/A

Status: Launch Successful

Launch date: May 10, 1999, 1:33 a.m. UTC

Rocket: Long March 4B

Launch pad: Launch Complex 7

Location: Taiyuan Satellite Launch Center, People's Republic of China

...

Latest news about this satellite

There are no fresh news available about this satellite. Check back as we update our databases every day.


Newsletter sign-up

Weekly statistics, charts and insights to help you stay on top of the space industry.